| time (UTC) | temp F | wind direction | speed MPH | gust MPH | rain 1hr in | rain 24hr in | rain mn in | humidity % | barometer mb |
| 20260831210100 | 97 | 0 | 0.0 | 7.0 | 0.00 | 0.00 | 0.00 | 32 | 1014.3 |
| 20260831204605 | 98 | 88 | 1.0 | 11.0 | 0.00 | 0.00 | 0.00 | 33 | 1014.4 |
| 20260831203104 | 99 | 0 | 3.0 | 10.0 | 0.00 | 0.00 | 0.00 | 33 | 1014.6 |
| 20260831201605 | 99 | 210 | 1.0 | 11.0 | 0.00 | 0.00 | 0.00 | 33 | 1014.9 |
| 20260831194659 | 100 | 0 | 0.0 | 9.0 | 0.00 | 0.00 | 0.00 | 33 | 1015.1 |
| 20260831193101 | 99 | 98 | 0.0 | 6.0 | 0.00 | 0.00 | 0.00 | 35 | 1015.3 |
| 20260831191608 | 98 | 0 | 1.0 | 8.0 | 0.00 | 0.00 | 0.00 | 35 | 1015.6 |
| 20260831190111 | 96 | 113 | 0.0 | 9.0 | 0.00 | 0.00 | 0.00 | 37 | 1015.6 |
| 20260831184617 | 98 | 0 | 1.0 | 11.0 | 0.00 | 0.00 | 0.00 | 36 | 1015.8 |
| 20260831183109 | 98 | 121 | 1.0 | 12.0 | 0.00 | 0.00 | 0.00 | 38 | 1015.9 |
| 20260831181607 | 99 | 0 | 2.0 | 9.0 | 0.00 | 0.00 | 0.00 | 36 | 1016.2 |
| 20260831180111 | 97 | 0 | 0.0 | 12.0 | 0.00 | 0.00 | 0.00 | 37 | 1016.4 |
| 20260831174606 | 97 | 0 | 1.0 | 12.0 | 0.00 | 0.00 | 0.00 | 37 | 1016.7 |
| 20260831173101 | 97 | 0 | 1.0 | 9.0 | 0.00 | 0.00 | 0.00 | 38 | 1017.0 |
| 20260831171606 | 96 | 0 | 0.0 | 11.0 | 0.00 | 0.00 | 0.00 | 38 | 1017.2 |
| 20260831170131 | 94 | 0 | 2.0 | 10.0 | 0.00 | 0.00 | 0.00 | 39 | 1017.2 |
| 20260831164601 | 94 | 198 | 0.0 | 8.0 | 0.00 | 0.00 | 0.00 | 41 | 1017.3 |
| 20260831163102 | 93 | 233 | 1.0 | 7.0 | 0.00 | 0.00 | 0.00 | 43 | 1017.3 |
| 20260831161615 | 93 | 202 | 1.0 | 8.0 | 0.00 | 0.00 | 0.00 | 43 | 1017.4 |
| 20260831160106 | 91 | 0 | 1.0 | 10.0 | 0.00 | 0.00 | 0.00 | 45 | 1017.4 |
| 20260831154632 | 91 | 213 | 1.0 | 6.0 | 0.00 | 0.00 | 0.00 | 49 | 1017.3 |
| 20260831153107 | 89 | 234 | 1.0 | 10.0 | 0.00 | 0.00 | 0.00 | 50 | 1017.2 |
| 20260831151606 | 88 | 181 | 1.0 | 12.0 | 0.00 | 0.00 | 0.00 | 53 | 1017.1 |
| 20260831150106 | 86 | 193 | 0.0 | 10.0 | 0.00 | 0.00 | 0.00 | 58 | 1017.1 |
| 20260831144605 | 86 | 166 | 1.0 | 7.0 | 0.00 | 0.00 | 0.00 | 61 | 1017.1 |
| 20260831143107 | 84 | 165 | 1.0 | 12.0 | 0.00 | 0.00 | 0.00 | 64 | 1017.2 |
| 20260831141600 | 83 | 0 | 2.0 | 11.0 | 0.00 | 0.00 | 0.00 | 67 | 1017.1 |
| 20260831140059 | 81 | 0 | 0.0 | 9.0 | 0.00 | 0.00 | 0.00 | 70 | 1017.0 |
| 20260831134607 | 80 | 223 | 1.0 | 9.0 | 0.00 | 0.00 | 0.00 | 73 | 1017.0 |
| 20260831133106 | 78 | 0 | 1.0 | 8.0 | 0.00 | 0.00 | 0.00 | 76 | 1016.7 |
| 20260831131602 | 77 | 0 | 0.0 | 5.0 | 0.00 | 0.00 | 0.00 | 78 | 1016.5 |
| 20260831130109 | 76 | 0 | 0.0 | 5.0 | 0.00 | 0.00 | 0.00 | 78 | 1016.3 |
| 20260831124605 | 76 | 0 | 0.0 | 4.0 | 0.00 | 0.00 | 0.00 | 78 | 1016.1 |
| 20260831123102 | 76 | 0 | 0.0 | 6.0 | 0.00 | 0.00 | 0.00 | 79 | 1016.0 |
| 20260831121604 | 76 | 0 | 0.0 | 4.0 | 0.00 | 0.00 | 0.00 | 78 | 1015.8 |
| 20260831120112 | 76 | 198 | 0.0 | 5.0 | 0.00 | 0.00 | 0.00 | 77 | 1015.6 |
| 20260831114609 | 76 | 0 | 0.0 | 2.0 | 0.00 | 0.00 | 0.00 | 76 | 1015.4 |
| 20260831113104 | 76 | 0 | 0.0 | 5.0 | 0.00 | 0.00 | 0.00 | 76 | 1015.3 |
| 20260831111616 | 76 | 0 | 0.0 | 5.0 | 0.00 | 0.00 | 0.00 | 75 | 1015.1 |
| 20260831104604 | 77 | 0 | 0.0 | 4.0 | 0.00 | 0.00 | 0.00 | 73 | 1015.1 |
| 20260831103118 | 77 | 0 | 0.0 | 3.0 | 0.00 | 0.00 | 0.00 | 73 | 1015.0 |
| 20260831101603 | 77 | 0 | 0.0 | 0.0 | 0.00 | 0.00 | 0.00 | 72 | 1015.0 |
| 20260831100103 | 77 | 0 | 0.0 | 2.0 | 0.00 | 0.00 | 0.00 | 71 | 1015.0 |
| 20260831094602 | 77 | 0 | 0.0 | 2.0 | 0.00 | 0.00 | 0.00 | 70 | 1014.9 |
| 20260831093102 | 77 | 0 | 0.0 | 0.0 | 0.00 | 0.00 | 0.00 | 70 | 1014.9 |
| 20260831091610 | 78 | 0 | 0.0 | 0.0 | 0.00 | 0.00 | 0.00 | 70 | 1014.8 |
| 20260831090118 | 78 | 0 | 0.0 | 0.0 | 0.00 | 0.00 | 0.00 | 68 | 1014.6 |
| 20260831084604 | 79 | 0 | 0.0 | 0.0 | 0.00 | 0.00 | 0.00 | 67 | 1014.7 |
| 20260831083105 | 80 | 0 | 0.0 | 2.0 | 0.00 | 0.00 | 0.00 | 65 | 1014.6 |
| 20260831081600 | 80 | 0 | 0.0 | 3.0 | 0.00 | 0.00 | 0.00 | 63 | 1014.7 |
| 20260831080113 | 81 | 0 | 0.0 | 4.0 | 0.00 | 0.00 | 0.00 | 62 | 1014.6 |
| 20260831074611 | 81 | 0 | 0.0 | 6.0 | 0.00 | 0.00 | 0.00 | 60 | 1014.6 |
| 20260831073102 | 82 | 196 | 0.0 | 7.0 | 0.00 | 0.00 | 0.00 | 59 | 1014.6 |
| 20260831071603 | 82 | 202 | 2.0 | 8.0 | 0.00 | 0.00 | 0.00 | 57 | 1014.6 |
| 20260831064606 | 83 | 199 | 0.0 | 4.0 | 0.00 | 0.00 | 0.00 | 55 | 1014.6 |
| 20260831063103 | 83 | 197 | 0.0 | 4.0 | 0.00 | 0.00 | 0.00 | 54 | 1014.7 |
| 20260831061604 | 83 | 0 | 0.0 | 4.0 | 0.00 | 0.00 | 0.00 | 54 | 1014.7 |
| 20260831060117 | 83 | 0 | 0.0 | 2.0 | 0.00 | 0.00 | 0.00 | 53 | 1014.5 |
| 20260831054615 | 83 | 0 | 0.0 | 2.0 | 0.00 | 0.00 | 0.00 | 53 | 1014.6 |
| 20260831051603 | 83 | 0 | 0.0 | 0.0 | 0.00 | 0.00 | 0.00 | 52 | 1014.4 |
| 20260831050114 | 83 | 0 | 0.0 | 0.0 | 0.00 | 0.00 | 0.00 | 50 | 1014.5 |
| 20260831044601 | 83 | 0 | 0.0 | 0.0 | 0.00 | 0.00 | 0.00 | 51 | 1014.5 |
| 20260831043104 | 83 | 0 | 0.0 | 0.0 | 0.00 | 0.00 | 0.00 | 49 | 1014.4 |
| 20260831041626 | 84 | 0 | 0.0 | 0.0 | 0.00 | 0.00 | 0.00 | 49 | 1014.4 |
| 20260831040105 | 84 | 0 | 0.0 | 0.0 | 0.00 | 0.00 | 0.00 | 48 | 1014.3 |
| 20260831034601 | 84 | 0 | 0.0 | 0.0 | 0.00 | 0.00 | 0.00 | 48 | 1014.2 |
| 20260831033107 | 85 | 0 | 0.0 | 0.0 | 0.00 | 0.00 | 0.00 | 48 | 1014.0 |
| 20260831031612 | 86 | 0 | 0.0 | 0.0 | 0.00 | 0.00 | 0.00 | 48 | 1013.9 |
| 20260831030117 | 86 | 0 | 0.0 | 0.0 | 0.00 | 0.00 | 0.00 | 47 | 1013.8 |
| 20260831024602 | 87 | 0 | 0.0 | 0.0 | 0.00 | 0.00 | 0.00 | 47 | 1013.6 |
| 20260831023109 | 87 | 0 | 0.0 | 0.0 | 0.00 | 0.00 | 0.00 | 47 | 1013.4 |
| 20260831021608 | 88 | 0 | 0.0 | 1.0 | 0.00 | 0.00 | 0.00 | 47 | 1013.2 |
| 20260831020113 | 89 | 0 | 0.0 | 0.0 | 0.00 | 0.00 | 0.00 | 47 | 1013.0 |
| 20260831014604 | 89 | 0 | 0.0 | 0.0 | 0.00 | 0.00 | 0.00 | 45 | 1012.8 |
| 20260831013107 | 90 | 0 | 0.0 | 0.0 | 0.00 | 0.00 | 0.00 | 42 | 1012.6 |
| 20260831011609 | 91 | 0 | 0.0 | 0.0 | 0.00 | 0.00 | 0.00 | 41 | 1012.5 |
| 20260831010106 | 93 | 0 | 0.0 | 3.0 | 0.00 | 0.00 | 0.00 | 40 | 1012.5 |
| 20260831004606 | 94 | 0 | 0.0 | 3.0 | 0.00 | 0.00 | 0.00 | 36 | 1012.4 |
| 20260831003104 | 95 | 0 | 0.0 | 7.0 | 0.00 | 0.00 | 0.00 | 33 | 1012.5 |
| 20260831001605 | 96 | 124 | 0.0 | 8.0 | 0.00 | 0.00 | 0.00 | 32 | 1012.5 |
| 20260831000105 | 97 | 121 | 1.0 | 8.0 | 0.00 | 0.00 | 0.00 | 33 | 1012.5 |
| 20260830234607 | 98 | 98 | 0.0 | 8.0 | 0.00 | 0.00 | 0.00 | 35 | 1012.7 |
| 20260830233103 | 98 | 0 | 2.0 | 7.0 | 0.00 | 0.00 | 0.00 | 30 | 1012.7 |
| 20260830231600 | 99 | 94 | 2.0 | 9.0 | 0.00 | 0.00 | 0.00 | 30 | 1012.6 |
| 20260830230104 | 100 | 209 | 0.0 | 8.0 | 0.00 | 0.00 | 0.00 | 29 | 1012.7 |
| 20260830224609 | 100 | 143 | 1.0 | 6.0 | 0.00 | 0.00 | 0.00 | 26 | 1012.8 |
| 20260830223108 | 100 | 123 | 1.0 | 11.0 | 0.00 | 0.00 | 0.00 | 27 | 1012.8 |
| 20260830221627 | 101 | 131 | 1.0 | 8.0 | 0.00 | 0.00 | 0.00 | 28 | 1012.8 |
| 20260830220112 | 100 | 107 | 2.0 | 12.0 | 0.00 | 0.00 | 0.00 | 28 | 1012.8 |
| 20260830214607 | 100 | 170 | 2.0 | 9.0 | 0.00 | 0.00 | 0.00 | 28 | 1012.8 |
| 20260830213103 | 101 | 88 | 1.0 | 11.0 | 0.00 | 0.00 | 0.00 | 27 | 1012.9 |
| 20260830211606 | 101 | 0 | 1.0 | 10.0 | 0.00 | 0.00 | 0.00 | 27 | 1013.0 |